KLM1714 ELLX-EHAM

Flight info

Callsign KLM1714
Flight time 0h 38m
Altitude 22000
Route LNO1P LNO N852 TERLA L608 BUB Y28 HELEN HELEN2A
Aircraft A321/M-SDE3FGHIRWY/LB1

Departure

Time 2026-04-30 18:32
Airport Luxembourg-Findel International Airport (ELLX)

Arrival

Time 2026-04-30 19:10
Airport Amsterdam Airport Schiphol (EHAM)
Time Latitude Longitude Altitude Speed Heading
2026-04-30 18:00 49.63234 6.21316 1230 ft 0 kts 60°
2026-04-30 18:16 49.63220 6.21285 1230 ft 4 kts 45°
2026-04-30 18:16 49.63217 6.21244 1231 ft 3 kts 150°
2026-04-30 18:17 49.63235 6.21228 1230 ft 0 kts 150°
2026-04-30 18:20 49.63235 6.21229 1230 ft 0 kts 150°
2026-04-30 18:20 49.63208 6.21252 1232 ft 5 kts 150°
2026-04-30 18:20 49.63176 6.21281 1232 ft 6 kts 150°
2026-04-30 18:20 49.63115 6.21333 1231 ft 16 kts 151°
2026-04-30 18:21 49.63010 6.21398 1228 ft 15 kts 196°
2026-04-30 18:21 49.62971 6.21306 1231 ft 11 kts 244°
2026-04-30 18:21 49.62924 6.21161 1233 ft 19 kts 243°
2026-04-30 18:21 49.62856 6.20947 1242 ft 21 kts 245°
2026-04-30 18:22 49.62817 6.20819 1239 ft 7 kts 237°
2026-04-30 18:22 49.62741 6.20680 1244 ft 5 kts 221°
2026-04-30 18:22 49.62700 6.20629 1237 ft 10 kts 218°
2026-04-30 18:23 49.62620 6.20507 1243 ft 24 kts 230°
2026-04-30 18:23 49.62505 6.20299 1228 ft 23 kts 235°
2026-04-30 18:23 49.62434 6.20114 1217 ft 17 kts 240°
2026-04-30 18:23 49.62393 6.20002 1211 ft 16 kts 240°
2026-04-30 18:24 49.62275 6.19684 1192 ft 19 kts 239°
2026-04-30 18:24 49.62218 6.19551 1185 ft 12 kts 213°
2026-04-30 18:24 49.62177 6.19560 1187 ft 0 kts 149°
2026-04-30 18:25 49.62176 6.19561 1187 ft 0 kts 149°
2026-04-30 18:29 49.62174 6.19563 1187 ft 1 kts 149°
2026-04-30 18:30 49.62120 6.19612 1190 ft 9 kts 149°
2026-04-30 18:30 49.62099 6.19678 1193 ft 4 kts 68°
2026-04-30 18:31 49.62114 6.19724 1197 ft 0 kts 61°
2026-04-30 18:31 49.62186 6.19916 1208 ft 43 kts 60°
2026-04-30 18:32 49.62881 6.21801 1230 ft 151 kts 62°
2026-04-30 18:32 49.63429 6.23260 1648 ft 158 kts 59°
2026-04-30 18:32 49.64554 6.25963 3060 ft 151 kts 66°
2026-04-30 18:33 49.65097 6.27485 3359 ft 173 kts 66°
2026-04-30 18:33 49.66399 6.31177 3830 ft 221 kts 65°
2026-04-30 18:33 49.67174 6.33358 4297 ft 240 kts 65°
2026-04-30 18:34 49.68003 6.35663 5028 ft 250 kts 65°
2026-04-30 18:34 49.69761 6.40483 6632 ft 264 kts 60°
2026-04-30 18:34 49.71121 6.42470 7368 ft 279 kts 32°
2026-04-30 18:35 49.72982 6.43417 8171 ft 290 kts
2026-04-30 18:35 49.74988 6.43065 9002 ft 297 kts 346°
2026-04-30 18:35 49.76950 6.42007 9839 ft 302 kts 334°
2026-04-30 18:36 49.80219 6.37542 10722 ft 336 kts 314°
2026-04-30 18:36 49.81868 6.34805 10966 ft 357 kts 314°
2026-04-30 18:36 49.85287 6.29011 12291 ft 368 kts 313°
2026-04-30 18:37 49.87024 6.26070 13035 ft 371 kts 314°
2026-04-30 18:37 49.88785 6.23103 13738 ft 376 kts 314°
2026-04-30 18:37 49.90574 6.20099 14392 ft 380 kts 314°
2026-04-30 18:37 49.92376 6.17078 15054 ft 384 kts 314°
2026-04-30 18:38 49.94173 6.14065 15709 ft 387 kts 314°
2026-04-30 18:38 49.96007 6.10990 16367 ft 390 kts 314°
2026-04-30 18:38 49.97860 6.07885 16971 ft 394 kts 314°
2026-04-30 18:38 49.99727 6.04751 17590 ft 397 kts 314°
2026-04-30 18:39 50.01609 6.01574 18194 ft 401 kts 314°
2026-04-30 18:39 50.03509 5.98358 18759 ft 405 kts 314°
2026-04-30 18:39 50.05418 5.95122 19296 ft 408 kts 314°
2026-04-30 18:39 50.07343 5.91862 19820 ft 411 kts 314°
2026-04-30 18:40 50.09286 5.88575 20313 ft 415 kts 314°
2026-04-30 18:40 50.11245 5.85257 20822 ft 417 kts 314°
2026-04-30 18:40 50.13214 5.81911 21347 ft 420 kts 314°
2026-04-30 18:40 50.15193 5.78537 21867 ft 423 kts 314°
2026-04-30 18:41 50.17209 5.75097 22188 ft 425 kts 314°
2026-04-30 18:41 50.19178 5.71732 22271 ft 425 kts 314°
2026-04-30 18:41 50.21174 5.68325 22271 ft 425 kts 314°
2026-04-30 18:41 50.23166 5.64923 22272 ft 424 kts 314°
2026-04-30 18:42 50.25154 5.61520 22269 ft 424 kts 314°
2026-04-30 18:42 50.29132 5.54688 22266 ft 424 kts 314°
2026-04-30 18:42 50.31110 5.51279 22271 ft 423 kts 313°
2026-04-30 18:45 50.50866 5.17030 22259 ft 423 kts 313°
2026-04-30 18:45 50.52836 5.13580 22259 ft 423 kts 313°
2026-04-30 18:45 50.54803 5.10139 22257 ft 423 kts 313°
2026-04-30 18:46 50.56745 5.06741 22253 ft 423 kts 313°
2026-04-30 18:46 50.58713 5.03292 22261 ft 423 kts 313°
2026-04-30 18:46 50.60678 4.99843 22259 ft 423 kts 313°
2026-04-30 18:46 50.62645 4.96391 22259 ft 424 kts 313°
2026-04-30 18:47 50.64615 4.92933 22261 ft 424 kts 313°
2026-04-30 18:47 50.66584 4.89468 22261 ft 424 kts 313°
2026-04-30 18:47 50.68548 4.86001 22272 ft 424 kts 313°
2026-04-30 18:47 50.70508 4.82529 22264 ft 424 kts 313°
2026-04-30 18:48 50.72469 4.79057 22263 ft 424 kts 313°
2026-04-30 18:48 50.74431 4.75588 22263 ft 424 kts 313°
2026-04-30 18:48 50.76391 4.72111 22264 ft 424 kts 313°
2026-04-30 18:48 50.78348 4.68631 22265 ft 424 kts 313°
2026-04-30 18:49 50.80279 4.65196 22262 ft 424 kts 312°
2026-04-30 18:49 50.82239 4.61707 22263 ft 424 kts 312°
2026-04-30 18:49 50.84198 4.58218 22263 ft 424 kts 312°
2026-04-30 18:49 50.86152 4.54730 22261 ft 424 kts 312°
2026-04-30 18:50 50.88109 4.51225 22261 ft 425 kts 312°
2026-04-30 18:50 50.90045 4.47753 22265 ft 425 kts 312°
2026-04-30 18:50 50.91999 4.44242 22269 ft 424 kts 312°
2026-04-30 18:50 50.93948 4.40734 22265 ft 424 kts 312°
2026-04-30 18:51 50.95900 4.37224 22264 ft 424 kts 312°
2026-04-30 18:51 50.97854 4.33711 22263 ft 424 kts 312°
2026-04-30 18:51 50.99804 4.30195 22203 ft 421 kts 312°
2026-04-30 18:51 51.01712 4.26749 21936 ft 412 kts 311°
2026-04-30 18:52 51.03596 4.23344 21679 ft 408 kts 311°
2026-04-30 18:52 51.05458 4.19971 21418 ft 405 kts 311°
2026-04-30 18:52 51.07311 4.16607 21173 ft 403 kts 311°
2026-04-30 18:52 51.09130 4.13298 20918 ft 402 kts 311°
2026-04-30 18:53 51.11017 4.10036 20668 ft 401 kts 319°
2026-04-30 18:53 51.13310 4.07570 20422 ft 396 kts 336°
2026-04-30 18:53 51.15919 4.06291 20182 ft 391 kts 354°
2026-04-30 18:53 51.18614 4.06228 19938 ft 387 kts
2026-04-30 18:54 51.21306 4.06496 19690 ft 387 kts
2026-04-30 18:54 51.23973 4.06763 19460 ft 386 kts
2026-04-30 18:54 51.26668 4.07032 19218 ft 385 kts
2026-04-30 18:54 51.29352 4.07294 18981 ft 384 kts
2026-04-30 18:55 51.32014 4.07548 18747 ft 383 kts
2026-04-30 18:55 51.37300 4.08037 18254 ft 381 kts
2026-04-30 18:55 51.39943 4.08285 17989 ft 379 kts
2026-04-30 18:56 51.45198 4.08782 17460 ft 376 kts
2026-04-30 18:56 51.47803 4.09032 17201 ft 372 kts
2026-04-30 18:56 51.50372 4.09278 16768 ft 368 kts
2026-04-30 18:57 51.55446 4.09772 15865 ft 362 kts
2026-04-30 18:57 51.57948 4.10021 15424 ft 359 kts
2026-04-30 18:57 51.60442 4.10280 14990 ft 360 kts
2026-04-30 18:58 51.65433 4.10776 14142 ft 358 kts
2026-04-30 18:58 51.67910 4.11012 13652 ft 356 kts
2026-04-30 18:58 51.70379 4.11246 13180 ft 353 kts
2026-04-30 18:59 51.75253 4.11710 12262 ft 349 kts
2026-04-30 19:00 51.82435 4.12409 10859 ft 344 kts
2026-04-30 19:00 51.84798 4.12634 10637 ft 335 kts
2026-04-30 19:00 51.89277 4.13099 10379 ft 309 kts 12°
2026-04-30 19:01 51.93080 4.15616 9810 ft 291 kts 41°
2026-04-30 19:01 51.94644 4.17678 9395 ft 289 kts 44°
2026-04-30 19:02 51.97744 4.21790 8551 ft 287 kts 44°
2026-04-30 19:02 52.00602 4.25572 7797 ft 285 kts 44°
2026-04-30 19:03 52.03647 4.29600 7054 ft 281 kts 44°
2026-04-30 19:03 52.06656 4.33595 6250 ft 278 kts 45°
2026-04-30 19:04 52.09640 4.37571 5406 ft 277 kts 45°
2026-04-30 19:04 52.12582 4.41498 5311 ft 274 kts 45°
2026-04-30 19:05 52.15537 4.45444 4517 ft 275 kts 45°
2026-04-30 19:05 52.18431 4.49296 3953 ft 263 kts 45°
2026-04-30 19:06 52.21000 4.53235 2974 ft 234 kts 64°
2026-04-30 19:06 52.21555 4.54676 2787 ft 220 kts 64°
2026-04-30 19:06 52.23053 4.58524 2195 ft 176 kts 65°
2026-04-30 19:07 52.24205 4.61501 1761 ft 142 kts 67°
2026-04-30 19:07 52.24722 4.62847 1573 ft 139 kts 67°
2026-04-30 19:08 52.25740 4.65492 1204 ft 136 kts 66°
2026-04-30 19:08 52.26754 4.68114 837 ft 139 kts 64°
2026-04-30 19:08 52.27271 4.69442 679 ft 139 kts 64°
2026-04-30 19:09 52.28304 4.72144 289 ft 140 kts 61°
2026-04-30 19:09 52.28825 4.73488 102 ft 140 kts 61°
2026-04-30 19:09 52.29322 4.74792 18 ft 122 kts 59°
2026-04-30 19:10 52.29957 4.76436 14 ft 66 kts 58°
2026-04-30 19:10 52.30332 4.77342 14 ft 17 kts
2026-04-30 19:11 52.30406 4.77236 12 ft 0 kts 317°
2026-04-30 19:11 52.30408 4.77234 12 ft 0 kts 324°
2026-04-30 19:13 52.30510 4.77127 9 ft 12 kts 328°
2026-04-30 19:13 52.30587 4.77050 6 ft 13 kts 328°
2026-04-30 19:14 52.30659 4.76957 4 ft 14 kts 297°
2026-04-30 19:14 52.30631 4.76849 3 ft 8 kts 235°
2026-04-30 19:14 52.30637 4.76757 1 ft 6 kts 276°
2026-04-30 19:14 52.30631 4.76739 1 ft 0 kts 237°
2026-04-30 19:15 52.30618 4.76730 3 ft 5 kts 198°
2026-04-30 19:15 52.30583 4.76704 2 ft 1 kts 214°